Orbital Elements at Epoch 2459200.5 (2020-Dec-17.0) TDB
Reference: JPL 14 (heliocentric ecliptic J2000)
Element | Value | Uncertainty (1-sigma) | Units |
e | .1358042929478697 | 5.5512e-08 | |
a | 2.294997341317088 | 1.2048e-08 | au |
q | 1.98332685006228 | 1.26e-07 | au |
i | 3.936761957252215 | 4.1893e-06 | deg |
node | 268.3871903443798 | 0.00010685 | deg |
peri | 28.11560328320203 | 0.00011234 | deg |
M | 84.71264502573899 | 3.6292e-05 | deg |
tp | 2458901.674642058424 (2020-Feb-22.17464206) | 0.00012793 | TDB |
period | 1269.906385596638 3.48 | 9.9998e-06 2.738e-08 | d yr |
n | .2834854632460657 | 2.2323e-09 | deg/d |
Q | 2.606667832571896 | 1.3684e-08 | au |
|
| | Orbit Determination Parameters
Additional Information
|